Asheville, NC

4:54 PM EDT on October 17, 2017 (GMT -0400)
Asheville Regional

Weather History for KAVL - October, 2012

Change the Weather History Date:

Saturday, October 20, 2012

  Actual Average Record
Temperature  
Mean Temperature 52 °F 55 °F  
Max Temperature 64 °F 67 °F 84 °F (2016)
Min Temperature 40 °F 43 °F 25 °F (1972)
Degree Days  
Heating Degree Days 13 10  
Month to date heating degree days 158 148  
Since 1 July heating degree days 184 205  
Cooling Degree Days 0 0  
Month to date cooling degree days 4 7  
Year to date cooling degree days 1022 859  
Moisture  
Dew Point 39 °F    
Average Humidity 66    
Maximum Humidity 89    
Minimum Humidity 43    
Precipitation  
Precipitation 0.00 in 0.09 in 2.27 in (1877)
Month to date precipitation 3.92 1.91  
Year to date precipitation 39.34 37.33  
Snow  
Snow 0.00 in 0.00 in T in (1989)
Month to date snowfall 0.0 0.0  
Since 1 July snowfall 0.0 0.0  
Since 1 September snowfall 0.0 0.0  
Snow Depth 0.00 in    
Sea Level Pressure  
Sea Level Pressure 29.86 in    
Wind  
Wind Speed 6 mph (North)    
Max Wind Speed 18 mph    
Max Gust Speed 22 mph    
Visibility 10 miles    
Events      
T = Trace of Precipitation, MM = Missing Value Source: NWS Daily Summary

Daily Weather History Graph

Daily Weather History Graph

Search for Another Location

Airport or City:

Trip Planner

Search our weather history database for the weather conditions in past years. The results will help you decide how hot, cold, wet, or windy it might be!

Date:

Astronomy

Oct. 20, 2012 Rise Set
Actual Time 7:41 AM EDT 6:47 PM EDT
Civil Twilight 7:15 AM EDT 7:13 PM EDT
Nautical Twilight 6:45 AM EDT 7:43 PM EDT
Astronomical Twilight 6:16 AM EDT 8:12 PM EDT
Moon 1:10 PM EDT (10/20) 11:38 PM EDT (10/20)
Length of Visible Light 11h 58m
Length of Day
11h 06m
Waxing Crescent, 34% of the Moon is Illuminated
Oct 20
Waxing Crescent
Oct 21
First Quarter
Oct 29
Full
Nov 6
Last Quarter
Nov 13
New

Hourly Weather History & Observations

Time (EDT) Temp. Windchill Dew Point Humidity Pressure Visibility Wind Dir Wind Speed Gust Speed Precip Events Conditions
12:54 AM 45.0 °F - 37.0 °F 74% 29.78 in 10.0 mi Calm Calm - N/A   Clear
1:54 AM 44.1 °F - 37.9 °F 79% 29.78 in 10.0 mi Calm Calm - N/A   Clear
2:54 AM 43.0 °F - 39.0 °F 86% 29.78 in 10.0 mi Calm Calm - N/A   Clear
3:54 AM 41.0 °F - 37.9 °F 89% 29.78 in 10.0 mi Calm Calm - N/A   Clear
4:54 AM 42.1 °F 40.2 °F 37.9 °F 85% 29.78 in 10.0 mi North 3.5 mph - N/A   Partly Cloudy
5:54 AM 41.0 °F - 37.9 °F 89% 29.80 in 10.0 mi Calm Calm - N/A   Clear
6:54 AM 46.0 °F 43.9 °F 37.9 °F 73% 29.82 in 10.0 mi North 4.6 mph - N/A   Clear
7:54 AM 46.0 °F - 37.9 °F 73% 29.83 in 10.0 mi Calm Calm - N/A   Clear
8:54 AM 50.0 °F - 39.9 °F 68% 29.85 in 10.0 mi North 4.6 mph - N/A   Clear
9:54 AM 53.1 °F - 39.9 °F 61% 29.86 in 10.0 mi North 10.4 mph - N/A   Clear
10:54 AM 55.0 °F - 39.9 °F 57% 29.87 in 10.0 mi North 11.5 mph 19.6 mph N/A   Clear
11:54 AM 57.9 °F - 39.9 °F 51% 29.87 in 10.0 mi NNE 8.1 mph - N/A   Clear
12:54 PM 59.0 °F - 39.9 °F 49% 29.87 in 10.0 mi Variable 5.8 mph - N/A   Clear
1:54 PM 61.0 °F - 39.9 °F 46% 29.86 in 10.0 mi Variable 5.8 mph - N/A   Clear
2:54 PM 62.1 °F - 39.9 °F 44% 29.84 in 10.0 mi NNW 5.8 mph 17.3 mph N/A   Clear
3:54 PM 62.1 °F - 39.9 °F 44% 29.84 in 10.0 mi NNW 15.0 mph - N/A   Clear
4:54 PM 60.1 °F - 39.0 °F 46% 29.86 in 10.0 mi North 11.5 mph 19.6 mph N/A   Clear
5:54 PM 59.0 °F - 39.9 °F 49% 29.88 in 10.0 mi NNW 15.0 mph - N/A   Clear
6:54 PM 55.0 °F - 39.9 °F 57% 29.91 in 10.0 mi NNW 8.1 mph - N/A   Clear
7:54 PM 53.1 °F - 39.9 °F 61% 29.94 in 10.0 mi North 4.6 mph - N/A   Clear
8:54 PM 50.0 °F - 41.0 °F 71% 29.96 in 10.0 mi NNW 6.9 mph - N/A   Clear
9:54 PM 51.1 °F - 39.9 °F 66% 29.96 in 10.0 mi North 5.8 mph - N/A   Clear
10:54 PM 50.0 °F - 39.9 °F 68% 29.97 in 10.0 mi North 5.8 mph - N/A   Clear
11:54 PM 46.9 °F - 41.0 °F 80% 29.99 in 10.0 mi Calm Calm - N/A   Clear